Lagoon City, Ontario

Past 24 Hour Conditions

Date / Time
(EDT)
Conditions Temp
(°F)
Humidity
(%)
Dew Point
(°F)
Wind
(mph)
Pressure
(inches)
Visibility
(miles)
31 October 2014
23:00 N/A 33   97 32 NNE 13 30.1 N/A
22:00 N/A 33   97 32 NNE 9 30.1 N/A
21:00 N/A 34 96 33 NNE 9 30.1 N/A
20:00 N/A 35 95 33 NNE 10 30.0 N/A
19:00 N/A 35 95 34 NE 9 30.0 N/A
18:00 N/A 36 94 34 NE 12 30.0 N/A
17:00 N/A 37 91 35 ENE 10 gust 18 30.0 N/A
16:00 N/A 38 91 35 ENE 10 29.9 N/A
15:00 N/A 38 90 35 E 10 29.9 N/A
14:00 N/A 39 90 36 E 12 29.9 N/A
13:00 N/A 39 90 36 ESE 13 gust 18 29.9 N/A
12:00 N/A 38 91 36 ESE 14 29.9 N/A
11:00 N/A 38 92 36 ESE 13 29.9 N/A
10:00 N/A 38 92 36 ESE 14 gust 19 29.9 N/A
9:00 N/A 38 92 36 ESE 11 gust 18 29.9 N/A
8:00 N/A 39 92 36 ESE 10 29.9 N/A
7:00 N/A 39 92 36 ESE 10 29.9 N/A
6:00 N/A 39 90 36 ESE 10 29.9 N/A
5:00 N/A 39 90 36 ESE 10 29.9 N/A
4:00 N/A 39 88 36 ESE 7 30.0 N/A
3:00 N/A 39 86 35 ESE 6 30.0 N/A
2:00 N/A 39 87 36 E 5 30.0 N/A
1:00 N/A 40   86 36 E 4 30.0 N/A
00:00 N/A 40   81 35 ESE 4 30.0 N/A
30 October 2014
23:00 N/A 40   84 35 ENE 4 30.0 N/A
N/A Not available
↑ Highest temperature
↓ Lowest temperature

If you require additional historical weather information, please visit Climate Data Online.

Date modified: